Location: Sihaung
(22.8641°N, 94.0549°E)
Time: 10:31:24
(UTC+00:00)

Meteor 1-14 Rocket - Pass Details

Date: 03 March 2021
Orbit: 834 x 918 km, 81.3° (Epoch: 12 April)

Event Time Altitude Azimuth Distance (km) Brightness Sun altitude
Rises 12:23:46 0° 181° (S) 3,429 7.4 -9.0°
Reaches altitude 10° 12:26:13 10° 179° (S) 2,482 6.7 -9.6°
Maximum altitude 12:31:49 74° 95° (E) 879 4.1 -10.9°
Drops below altitude 10° 12:37:20 10° 11° (N) 2,451 6.5 -12.1°
Sets 12:39:44 0° 10° (N) 3,383 7.2 -12.7°
